Meteo Giornale » Osservazioni meteo Stati Uniti (USA) » Independence
ore: 09:30 - Osservazioni Meteo Independence
Lat. 37° 10' N Lon. 95° 47' W Alt. 251 metri s.l.m.
31 °C
Sereno
Temp. 24 Ore
23 °C
40 °C
Sud
22.2 Km/h
Dew point 18 °C
Umidità 45 %
Visibilità 10 Km
Il sole sorge alle ore 06:53
Il sole tramonta alle ore 19:53
| Data e Ora | Cielo e Fenomeni | T °C | DP °C | Um. % | Pres. hPa | Vis. km | Vento km/h | |
|---|---|---|---|---|---|---|---|---|
| Oggi h: 09:30 | Sereno | 31 | 18 | 45 | 1016 | 10 | S 22.2 | |
| Oggi h: 09:10 | Sereno | 30 | 18 | 48 | 1016 | 10 | S/SO 22.2 | |
| Oggi h: 08:50 | Sereno | 29 | 18 | 51 | 1016 | 10 | S 14.8 | |
| Oggi h: 08:30 | Sereno | 28 | 17 | 51 | 1016 | 10 | S 18.5 | |
| Oggi h: 08:10 | Sereno | 26 | 17 | 57 | 1016 | 10 | S 16.7 | |
| Oggi h: 07:50 | Sereno | 25 | 17 | 61 | 1016 | 10 | S 13 | |
| Oggi h: 07:30 | Sereno | 24 | 17 | 64 | 1016 | 10 | S 9.3 | |
| Oggi h: 07:10 | Sereno | 23 | 17 | 68 | 1016 | 10 | S 9.3 | |
| Oggi h: 06:50 | Sereno | 23 | 16 | 64 | 1015 | 10 | S 11.1 | |
| Oggi h: 06:30 | Sereno | 23 | 16 | 64 | 1015 | 10 | S/SO 9.3 | |
| Oggi h: 06:10 | Sereno | 24 | 16 | 60 | 1015 | 10 | S 14.8 | |
| Oggi h: 05:50 | Sereno | 25 | 16 | 57 | 1015 | 10 | S 14.8 | |
| Oggi h: 05:30 | Sereno | 25 | 16 | 57 | 1015 | 10 | S 16.7 | |
| Oggi h: 05:10 | Sereno | 26 | 16 | 54 | 1014 | 10 | S 16.7 | |
| Oggi h: 04:50 | Sereno | 26 | 17 | 57 | 1014 | 10 | S 18.5 | |
| Oggi h: 04:30 | Sereno | 26 | 17 | 57 | 1014 | 10 | S 20.3 | |
| Oggi h: 04:10 | Sereno | 26 | 17 | 57 | 1014 | 10 | S 20.3 | |
| Oggi h: 03:50 | Sereno | 26 | 17 | 57 | 1014 | 10 | S 18.5 | |
| Oggi h: 03:30 | Sereno | 26 | 17 | 57 | 1014 | 10 | S 16.7 | |
| Oggi h: 03:10 | Sereno | 26 | 17 | 57 | 1014 | 10 | S 14.8 | |
| Oggi h: 02:50 | Sereno | 27 | 16 | 50 | 1014 | 10 | S 14.8 | |
| Oggi h: 02:30 | Sereno | 27 | 16 | 50 | 1014 | 10 | S 18.5 | |
| Oggi h: 02:10 | Sereno | 26 | 17 | 57 | 1014 | 10 | S 13 | |
| Oggi h: 01:50 | Sereno | 27 | 17 | 54 | 1013 | 10 | S 14.8 | |
| Oggi h: 01:30 | Sereno | 27 | 17 | 54 | 1013 | 10 | S 16.7 | |
| Oggi h: 01:10 | Sereno | 27 | 17 | 54 | 1013 | 10 | S/SE 18.5 | |
| Oggi h: 00:50 | Sereno | 28 | 17 | 51 | 1013 | 10 | S/SE 20.3 | |
| Oggi h: 00:30 | Sereno | 27 | 16 | 50 | 1013 | 10 | S/SE 13 | |
| Oggi h: 00:10 | Sereno | 26 | 16 | 54 | 1013 | 10 | S 13 | |
| Ieri h: 23:50 | Sereno | 27 | 16 | 50 | 1013 | 10 | S 11.1 | |
| Ieri h: 23:30 | Sereno | 27 | 16 | 50 | 1012 | 10 | S/SE 11.1 | |
| Ieri h: 23:10 | Sereno | 27 | 16 | 50 | 1012 | 10 | S/SE 11.1 | |
| Ieri h: 22:50 | Sereno | 28 | 16 | 48 | 1012 | 10 | S/SE 13 | |
| Ieri h: 22:30 | Sereno | 28 | 17 | 51 | 1012 | 10 | S/SE 13 | |
| Ieri h: 22:10 | Sereno | 29 | 17 | 48 | 1012 | 10 | S/SE 13 | |
| Ieri h: 21:50 | Sereno | 30 | 17 | 45 | 1012 | 10 | S/SE 14.8 | |
| Ieri h: 21:30 | Sereno | 31 | 16 | 40 | 1012 | 10 | S/SE 14.8 | |
| Ieri h: 21:10 | Sereno | 31 | 16 | 40 | 1012 | 10 | S/SE 16.7 | |
| Ieri h: 20:50 | Sereno | 31 | 16 | 40 | 1012 | 10 | S/SE 14.8 | |
| Ieri h: 20:30 | Sereno | 32 | 16 | 38 | 1011 | 10 | S/SE 18.5 | |
| Ieri h: 20:10 | Sereno | 33 | 16 | 36 | 1011 | 10 | S/SE 18.5 | |
| Ieri h: 19:50 | Sereno | 33 | 16 | 36 | 1011 | 10 | S/SE 16.7 | |
| Ieri h: 19:30 | Sereno | 35 | 16 | 32 | 1011 | 10 | S 20.3 | |
| Ieri h: 19:10 | Sereno | 36 | 16 | 30 | 1011 | 10 | S 24 | |
| Ieri h: 18:50 | Sereno | 37 | 16 | 28 | 1011 | 10 | S 27.8 | |
| Ieri h: 18:30 | Sereno | 37 | 16 | 28 | 1011 | 10 | S 25.9 | |
| Ieri h: 18:10 | Sereno | 38 | 16 | 27 | 1011 | 10 | S 33.3 | |
| Ieri h: 17:50 | Sereno | 38 | 15 | 25 | 1011 | 10 | S/SE 31.5 | |
| Ieri h: 17:30 | Sereno | 39 | 16 | 26 | 1011 | 10 | S/SE 33.3 | |
| Ieri h: 17:10 | Sereno | 39 | 16 | 26 | 1011 | 10 | S 29.6 | |
| Ieri h: 16:50 | Sereno | 39 | 16 | 26 | 1011 | 10 | S 31.5 | |
| Ieri h: 16:30 | Sereno | 39 | 16 | 26 | 1011 | 10 | S/SO 31.5 | |
| Ieri h: 16:10 | Sereno | 40 | 16 | 24 | 1011 | 10 | S 27.8 | |
| Ieri h: 15:50 | Sereno | 40 | 16 | 24 | 1011 | 10 | S/SE 33.3 | |
| Ieri h: 15:30 | Sereno | 40 | 16 | 24 | 1012 | 10 | S 22.2 | |
| Ieri h: 15:10 | Sereno | 39 | 17 | 27 | 1012 | 10 | S 27.8 | |
| Ieri h: 14:50 | Sereno | 39 | 16 | 26 | 1012 | 10 | S 20.3 | |
| Ieri h: 14:30 | Sereno | 39 | 17 | 27 | 1012 | 10 | SO 29.6 | |
| Ieri h: 14:10 | Sereno | 39 | 17 | 27 | 1012 | 10 | S 37 | |
| Ieri h: 13:50 | Sereno | 39 | 17 | 27 | 1013 | 10 | S/SO 29.6 | |
| Ieri h: 13:30 | Sereno | 38 | 17 | 29 | 1013 | 10 | SO 29.6 | |
| Ieri h: 13:10 | Sereno | 38 | 17 | 29 | 1013 | 10 | S/SO 29.6 | |
| Ieri h: 12:50 | Sereno | 37 | 18 | 32 | 1014 | 10 | S/SO 29.6 | |
| Ieri h: 12:30 | Sereno | 37 | 18 | 32 | 1014 | 10 | SO 31.5 | |
| Ieri h: 12:10 | Sereno | 37 | 18 | 32 | 1014 | 10 | S/SO 25.9 | |
| Ieri h: 11:50 | Sereno | 35 | 18 | 36 | 1014 | 10 | S 27.8 | |
| Ieri h: 11:30 | Sereno | 35 | 18 | 36 | 1015 | 10 | S 33.3 | |
| Ieri h: 11:10 | Sereno | 34 | 18 | 38 | 1015 | 10 | S 29.6 | |
| Ieri h: 10:50 | Sereno | 33 | 18 | 41 | 1015 | 10 | S/SO 27.8 | |
| Ieri h: 10:30 | Sereno | 32 | 18 | 43 | 1015 | 10 | S 25.9 | |
| Ieri h: 10:10 | Sereno | 31 | 17 | 43 | 1015 | 10 | S 33.3 | |
| Ieri h: 09:50 | Sereno | 30 | 17 | 45 | 1015 | 10 | S 33.3 | |



